Weather History for Abilene Dyess, TX

Change the Weather History Date:

Thursday, January 3, 2013

  Actual Average Record
Temperature  
Mean Temperature 32 °F -  
Max Temperature 44 °F 57 °F 89 °F (2006)
Min Temperature 21 °F 35 °F 19 °F (1999)
Degree Days  
Heating Degree Days 32    
Moisture  
Dew Point 20 °F    
Average Humidity 59    
Maximum Humidity 84    
Minimum Humidity 40    
Precipitation  
Precipitation 0.00 in - - ()
Sea Level Pressure  
Sea Level Pressure 30.44 in    
Wind  
Wind Speed 4 mph (NNE)    
Max Wind Speed 8 mph    
Max Gust Speed -    
Visibility 10 miles    
Events      
Averages and records for this station are not official NWS values.
T = Trace of Precipitation, MM = Missing Value Source: NWS Daily Summary

Daily Weather History Graph

Daily Weather History Graph

Search for Another Location

Airport:

Trip Planner

Search our weather history database for the weather conditions in past years. The results will help you decide how hot, cold, wet, or windy it might be!

Date:

Astronomy

Jan. 03, 2013 Rise Set
Actual Time 7:41 AM CST 5:46 PM CST
Civil Twilight 7:14 AM CST 6:13 PM CST
Nautical Twilight 6:43 AM CST 6:44 PM CST
Astronomical Twilight 6:14 AM CST 7:14 PM CST
Moon 11:59 PM CST (1/3) 11:16 AM CST (1/3)
Length of Visible Light 10h 59m
Length of Day
10h 05m
Waning Gibbous, 65% of the Moon is Illuminated
Jan 3
Waning Gibbous
Jan 4
Last Quarter
Jan 11
New
Jan 18
First Quarter
Jan 26
Full

Hourly Weather History & Observations

Time (CST) Temp. Windchill Dew Point Humidity Pressure Visibility Wind Dir Wind Speed Gust Speed Precip Events Conditions
12:55 AM 21.9 °F 15.7 °F 14.9 °F 74% 30.36 in 10.0 mi SW 4.6 mph - N/A   Clear
1:55 AM 28.2 °F - 19.0 °F 68% 30.35 in 10.0 mi Calm Calm - N/A   Clear
2:55 AM 22.3 °F - 15.8 °F 76% 30.38 in 10.0 mi Calm Calm - N/A   Clear
3:55 AM 21.9 °F 15.7 °F 16.2 °F 78% 30.39 in 10.0 mi NNW 4.6 mph - N/A   Clear
4:55 AM 21.4 °F 13.8 °F 15.6 °F 78% 30.40 in 10.0 mi NW 5.8 mph - N/A   Clear
5:55 AM 21.0 °F 14.6 °F 15.8 °F 80% 30.43 in 10.0 mi WNW 4.6 mph - N/A   Clear
6:55 AM 23.2 °F 18.7 °F 18.9 °F 84% 30.46 in 10.0 mi NNW 3.5 mph - N/A   Mostly Cloudy
7:55 AM 26.1 °F 21.9 °F 21.0 °F 81% 30.45 in 10.0 mi NNW 3.5 mph - N/A   Overcast
8:55 AM 28.6 °F 24.8 °F 22.3 °F 77% 30.50 in 10.0 mi North 3.5 mph - N/A   Overcast
9:55 AM 31.1 °F 27.7 °F 23.5 °F 74% 30.50 in 10.0 mi North 3.5 mph - N/A   Mostly Cloudy
10:55 AM 36.1 °F 29.9 °F 24.4 °F 63% 30.50 in 10.0 mi North 8.1 mph - N/A   Scattered Clouds
11:55 AM 38.3 °F 32.5 °F 24.3 °F 57% 30.50 in 10.0 mi NE 8.1 mph - N/A   Mostly Cloudy
12:55 PM 40.3 °F 37.1 °F 23.0 °F 50% 30.45 in 10.0 mi Variable 4.6 mph - N/A   Scattered Clouds
1:55 PM 43.5 °F 38.9 °F 22.3 °F 43% 30.43 in 10.0 mi East 8.1 mph - N/A   Scattered Clouds
2:55 PM 43.3 °F 39.9 °F 21.9 °F 43% 30.43 in 10.0 mi East 5.8 mph - N/A   Mostly Cloudy
3:55 PM 44.1 °F 42.5 °F 21.6 °F 41% 30.44 in 10.0 mi SSW 3.5 mph - N/A   Scattered Clouds
4:55 PM 42.4 °F - 22.5 °F 45% 30.43 in 10.0 mi Calm Calm - N/A   Clear
5:55 PM 39.9 °F 37.8 °F 22.6 °F 50% 30.43 in 10.0 mi South 3.5 mph - N/A   Overcast
6:55 PM 41.2 °F - 22.1 °F 47% 30.43 in 10.0 mi Calm Calm - N/A   Overcast
7:55 PM 41.2 °F 37.3 °F 18.1 °F 40% 30.43 in 10.0 mi NE 5.8 mph - N/A   Overcast
8:55 PM 40.5 °F 35.8 °F 18.7 °F 42% 30.44 in 10.0 mi ENE 6.9 mph - N/A   Overcast
9:55 PM 40.1 °F 38.0 °F 18.9 °F 43% 30.44 in 10.0 mi East 3.5 mph - N/A   Overcast
10:55 PM 39.4 °F 35.2 °F 19.8 °F 45% 30.45 in 10.0 mi ESE 5.8 mph - N/A   Partly Cloudy
11:55 PM 39.0 °F - 19.6 °F 46% 30.43 in 10.0 mi Calm Calm - N/A   Mostly Cloudy